Location: Acton
(51.4942°N, 0.2232°W)
Time: 14:01:04
(UTC+00:00)

Okean 1-7 Rocket - Pass Details

Date: 20 January 2021
Orbit: 615 x 650 km, 82.5° (Epoch: 28 February)

Event Time Altitude Azimuth Distance (km) Brightness Sun altitude
Rises 19:13:22 0° 211° (SSW) 2,947 7.5 -24.9°
Reaches altitude 10° 19:15:43 10° 219° (SW) 2,046 6.7 -25.3°
Maximum altitude 19:19:59 39° 288° (WNW) 985 5.0 -26.0°
Drops below altitude 10° 19:24:18 10° 358° (N) 2,069 6.3 -26.6°
Enters shadow 19:24:38 - 359° (N) 2,193 6.4 -26.7°
